Location: Newark
(27.9700°N, 83.2300°E)
Time: 00:58:40
(UTC+00:00)

Envisat - Visible Passes

Search period start: 21 February 2020 00:00
Search period end: 02 March 2020 00:00
Orbit: 764 x 766 km, 98.1° (Epoch: 20 February)

Date Brightness Start Highest point End Pass type
(mag) Time Alt. Az. Time Alt. Az. Time Alt. Az.
22 Feb 5.9 13:25:35 10° SW 13:29:10 19° W 13:32:46 10° NW visible
23 Feb 5.9 00:02:08 10° NE 00:05:54 21° E 00:09:40 10° SE visible
23 Feb 4.2 12:47:23 10° S 12:52:16 49° W 12:57:10 10° NNW visible
25 Feb 4.7 00:26:43 10° NNE 00:31:29 40° E 00:36:12 10° SSE visible
25 Feb 5.5 13:13:40 10° SSW 13:17:49 25° W 13:21:58 10° NW visible
25 Feb 6.3 23:51:32 10° ENE 23:54:33 16° E 23:57:33 10° SE visible
27 Feb 6.4 13:41:10 10° WSW 13:43:26 13° W 13:45:42 10° WNW visible
28 Feb 5.3 00:15:42 10° NE 00:20:09 30° E 00:24:34 10° SSE visible
28 Feb 5.0 13:01:56 10° SSW 13:06:28 33° W 13:11:02 10° NW visible
28 Feb 6.6 23:41:28 10° ENE 23:43:10 12° E 23:44:52 10° ESE visible
01 Mar 6.1 13:28:46 10° SW 13:32:04 17° W 13:35:23 10° NW visible
